Time,TemperatureF,DewpointF,PressureIn,WindDirection,WindDirectionDegrees,WindSpeedMPH,WindSpeedGustMPH,Humidity,HourlyPrecipIn,Conditions,Clouds,dailyrainin,SoftwareType,DateUTC
2013-03-19 00:02:00,68.9,66.0,29.89,NW,309,0.0,6.0,91,0.00,,,0.00,weatherlink.com 1.10,2013-03-19 05:02:00,
2013-03-19 00:17:00,68.5,66.0,29.89,WNW,297,0.0,2.0,91,0.00,,,0.00,weatherlink.com 1.10,2013-03-19 05:17:00,
2013-03-19 00:32:00,68.3,66.0,29.89,East,98,0.0,1.0,91,0.00,,,0.00,weatherlink.com 1.10,2013-03-19 05:32:00,
2013-03-19 00:47:00,69.0,65.0,29.89,NNE,32,4.0,9.0,88,0.00,,,0.00,weatherlink.com 1.10,2013-03-19 05:47:00,
2013-03-19 01:02:00,69.0,64.0,29.90,East,94,6.0,12.0,85,0.00,,,0.00,weatherlink.com 1.10,2013-03-19 06:02:00,
2013-03-19 01:18:00,68.9,63.0,29.91,East,88,7.0,17.0,82,0.00,,,0.00,weatherlink.com 1.10,2013-03-19 06:18:00,
2013-03-19 01:33:00,68.8,63.0,29.91,ENE,61,6.0,14.0,82,0.00,,,0.00,weatherlink.com 1.10,2013-03-19 06:33:00,
2013-03-19 01:48:00,68.3,63.0,29.91,ENE,65,3.0,9.0,84,0.00,,,0.00,weatherlink.com 1.10,2013-03-19 06:48:00,
2013-03-19 02:03:00,67.8,63.0,29.91,East,86,4.0,9.0,84,0.00,,,0.00,weatherlink.com 1.10,2013-03-19 07:03:00,
2013-03-19 02:18:00,67.4,61.0,29.91,East,91,4.0,11.0,81,0.00,,,0.00,weatherlink.com 1.10,2013-03-19 07:18:00,
2013-03-19 02:33:00,66.7,60.0,29.92,East,96,7.0,10.0,79,0.00,,,0.00,weatherlink.com 1.10,2013-03-19 07:33:00,
2013-03-19 02:48:00,66.0,58.0,29.92,NE,54,7.0,11.0,75,0.00,,,0.00,weatherlink.com 1.10,2013-03-19 07:48:00,
2013-03-19 03:03:00,65.2,57.0,29.92,ENE,65,4.0,12.0,76,0.00,,,0.00,weatherlink.com 1.10,2013-03-19 08:03:00,
2013-03-19 03:18:00,64.7,55.0,29.93,NE,35,5.0,13.0,71,0.00,,,0.00,weatherlink.com 1.10,2013-03-19 08:18:00,
2013-03-19 03:33:00,64.0,49.0,29.94,NE,43,7.0,15.0,59,0.00,,,0.00,weatherlink.com 1.10,2013-03-19 08:33:00,
2013-03-19 04:03:00,62.5,45.0,29.94,ENE,75,6.0,13.0,53,0.00,,,0.00,weatherlink.com 1.10,2013-03-19 09:03:00,
2013-03-19 04:18:00,61.7,42.0,29.94,NE,55,4.0,13.0,48,0.00,,,0.00,weatherlink.com 1.10,2013-03-19 09:18:00,
2013-03-19 04:33:00,60.8,41.0,29.94,NNE,16,7.0,15.0,49,0.00,,,0.00,weatherlink.com 1.10,2013-03-19 09:33:00,
2013-03-19 04:48:00,60.1,42.0,29.95,East,91,10.0,13.0,52,0.00,,,0.00,weatherlink.com 1.10,2013-03-19 09:48:00,
2013-03-19 05:03:00,59.1,43.0,29.95,NE,50,2.0,9.0,56,0.00,,,0.00,weatherlink.com 1.10,2013-03-19 10:03:00,
2013-03-19 05:18:00,58.6,44.0,29.95,NE,41,6.0,15.0,59,0.00,,,0.00,weatherlink.com 1.10,2013-03-19 10:18:00,
2013-03-19 05:33:00,58.3,44.0,29.96,NE,41,7.0,14.0,60,0.00,,,0.00,weatherlink.com 1.10,2013-03-19 10:33:00,
2013-03-19 05:48:00,57.7,45.0,29.96,NNE,31,3.0,11.0,63,0.00,,,0.00,weatherlink.com 1.10,2013-03-19 10:48:00,
2013-03-19 06:04:00,57.0,45.0,29.96,ENE,68,3.0,12.0,65,0.00,,,0.00,weatherlink.com 1.10,2013-03-19 11:04:00,
2013-03-19 06:19:00,56.3,46.0,29.96,ENE,58,8.0,12.0,68,0.00,,,0.00,weatherlink.com 1.10,2013-03-19 11:19:00,
2013-03-19 06:34:00,55.7,46.0,29.97,ENE,72,2.0,10.0,70,0.00,,,0.00,weatherlink.com 1.10,2013-03-19 11:34:00,
2013-03-19 06:49:00,55.1,46.0,29.98,ENE,67,4.0,8.0,72,0.00,,,0.00,weatherlink.com 1.10,2013-03-19 11:49:00,
2013-03-19 07:04:00,54.7,46.0,29.97,NE,50,5.0,8.0,73,0.00,,,0.00,weatherlink.com 1.10,2013-03-19 12:04:00,
2013-03-19 07:19:00,54.1,46.0,29.98,ENE,77,4.0,9.0,75,0.00,,,0.00,weatherlink.com 1.10,2013-03-19 12:19:00,
2013-03-19 07:34:00,53.8,46.0,29.98,NE,39,2.0,9.0,76,0.00,,,0.00,weatherlink.com 1.10,2013-03-19 12:34:00,
2013-03-19 07:49:00,54.1,47.0,29.99,North,355,5.0,9.0,76,0.00,,,0.00,weatherlink.com 1.10,2013-03-19 12:49:00,
2013-03-19 08:04:00,54.8,47.0,29.98,East,82,5.0,11.0,75,0.00,,,0.00,weatherlink.com 1.10,2013-03-19 13:04:00,
2013-03-19 08:19:00,55.4,47.0,29.99,NE,47,6.0,10.0,74,0.00,,,0.00,weatherlink.com 1.10,2013-03-19 13:19:00,
2013-03-19 08:34:00,56.0,47.0,29.99,ESE,117,9.0,13.0,72,0.00,,,0.00,weatherlink.com 1.10,2013-03-19 13:34:00,
2013-03-19 08:49:00,56.7,47.0,29.99,ESE,102,6.0,15.0,70,0.00,,,0.00,weatherlink.com 1.10,2013-03-19 13:49:00,
2013-03-19 09:04:00,57.7,47.0,29.99,East,98,6.0,11.0,67,0.00,,,0.00,weatherlink.com 1.10,2013-03-19 14:04:00,
2013-03-19 09:19:00,58.8,47.0,29.99,East,89,4.0,12.0,66,0.00,,,0.00,weatherlink.com 1.10,2013-03-19 14:19:00,
2013-03-19 09:34:00,60.3,46.0,30.00,ENE,71,7.0,11.0,60,0.00,,,0.00,weatherlink.com 1.10,2013-03-19 14:34:00,
2013-03-19 09:49:00,61.7,46.0,30.00,ESE,117,3.0,11.0,56,0.00,,,0.00,weatherlink.com 1.10,2013-03-19 14:49:00,
2013-03-19 10:04:00,62.9,45.0,30.01,ESE,110,9.0,11.0,53,0.00,,,0.00,weatherlink.com 1.10,2013-03-19 15:04:00,
2013-03-19 10:19:00,64.6,45.0,30.00,East,98,11.0,13.0,49,0.00,,,0.00,weatherlink.com 1.10,2013-03-19 15:19:00,
2013-03-19 10:34:00,65.7,46.0,29.99,SE,145,7.0,13.0,49,0.00,,,0.00,weatherlink.com 1.10,2013-03-19 15:34:00,
2013-03-19 10:49:00,66.6,47.0,29.98,ESE,108,3.0,11.0,49,0.00,,,0.00,weatherlink.com 1.10,2013-03-19 15:49:00,
2013-03-19 11:04:00,68.3,48.0,29.98,East,86,6.0,10.0,49,0.00,,,0.00,weatherlink.com 1.10,2013-03-19 16:04:00,
2013-03-19 11:19:00,69.8,49.0,29.99,East,91,7.0,10.0,48,0.00,,,0.00,weatherlink.com 1.10,2013-03-19 16:19:00,
2013-03-19 11:34:00,70.2,49.0,30.00,East,85,6.0,9.0,48,0.00,,,0.00,weatherlink.com 1.10,2013-03-19 16:34:00,
2013-03-19 11:49:00,70.8,51.0,30.00,ESE,119,2.0,8.0,49,0.00,,,0.00,weatherlink.com 1.10,2013-03-19 16:49:00,
2013-03-19 12:04:00,71.9,52.0,30.00,East,92,4.0,10.0,49,0.00,,,0.00,weatherlink.com 1.10,2013-03-19 17:04:00,
2013-03-19 12:34:00,72.9,53.0,30.00,NE,54,4.0,8.0,49,0.00,,,0.00,weatherlink.com 1.10,2013-03-19 17:34:00,
2013-03-19 12:49:00,73.9,53.0,29.99,ESE,102,2.0,9.0,49,0.00,,,0.00,weatherlink.com 1.10,2013-03-19 17:49:00,
2013-03-19 13:04:00,74.6,54.0,29.98,NNE,27,6.0,8.0,48,0.00,,,0.00,weatherlink.com 1.10,2013-03-19 18:04:00,
2013-03-19 13:19:00,75.7,55.0,29.99,ESE,115,0.0,7.0,48,0.00,,,0.00,weatherlink.com 1.10,2013-03-19 18:19:00,
2013-03-19 13:34:00,75.5,54.0,29.98,ENE,58,3.0,10.0,47,0.00,,,0.00,weatherlink.com 1.10,2013-03-19 18:34:00,
2013-03-19 13:49:00,75.7,55.0,29.98,East,98,2.0,9.0,48,0.00,,,0.00,weatherlink.com 1.10,2013-03-19 18:49:00,
2013-03-19 14:05:00,76.9,54.0,29.97,NE,54,2.0,5.0,46,0.00,,,0.00,weatherlink.com 1.10,2013-03-19 19:05:00,
2013-03-19 14:20:00,76.9,55.0,29.97,NE,40,0.0,6.0,47,0.00,,,0.00,weatherlink.com 1.10,2013-03-19 19:20:00,
2013-03-19 14:35:00,77.2,54.0,29.96,ENE,67,3.0,8.0,45,0.00,,,0.00,weatherlink.com 1.10,2013-03-19 19:35:00,
2013-03-19 14:50:00,76.4,55.0,29.95,East,86,2.0,10.0,47,0.00,,,0.00,weatherlink.com 1.10,2013-03-19 19:50:00,
2013-03-19 15:05:00,76.8,55.0,29.94,East,89,3.0,8.0,47,0.00,,,0.00,weatherlink.com 1.10,2013-03-19 20:05:00,
2013-03-19 15:20:00,76.4,55.0,29.93,East,96,5.0,9.0,47,0.00,,,0.00,weatherlink.com 1.10,2013-03-19 20:20:00,
2013-03-19 15:35:00,76.6,54.0,29.93,ENE,57,3.0,8.0,46,0.00,,,0.00,weatherlink.com 1.10,2013-03-19 20:35:00,
2013-03-19 15:50:00,77.0,55.0,29.92,East,91,4.0,7.0,47,0.00,,,0.00,weatherlink.com 1.10,2013-03-19 20:50:00,
2013-03-19 16:05:00,77.3,55.0,29.92,East,100,7.0,7.0,47,0.00,,,0.00,weatherlink.com 1.10,2013-03-19 21:05:00,
2013-03-19 16:20:00,76.6,55.0,29.92,ENE,76,5.0,11.0,47,0.00,,,0.00,weatherlink.com 1.10,2013-03-19 21:20:00,
2013-03-19 16:35:00,77.1,56.0,29.91,East,100,2.0,7.0,48,0.00,,,0.00,weatherlink.com 1.10,2013-03-19 21:35:00,
2013-03-19 16:50:00,77.2,55.0,29.91,NE,42,8.0,8.0,47,0.00,,,0.00,weatherlink.com 1.10,2013-03-19 21:50:00,
2013-03-19 17:05:00,76.3,56.0,29.91,East,100,4.0,5.0,50,0.00,,,0.00,weatherlink.com 1.10,2013-03-19 22:05:00,
2013-03-19 17:20:00,75.9,55.0,29.91,East,94,3.0,7.0,48,0.00,,,0.00,weatherlink.com 1.10,2013-03-19 22:20:00,
2013-03-19 17:35:00,75.5,54.0,29.91,ESE,102,6.0,10.0,48,0.00,,,0.00,weatherlink.com 1.10,2013-03-19 22:35:00,
2013-03-19 18:05:00,74.9,54.0,29.91,East,79,7.0,8.0,48,0.00,,,0.00,weatherlink.com 1.10,2013-03-19 23:05:00,
2013-03-19 18:20:00,74.2,54.0,29.91,ENE,75,5.0,7.0,49,0.00,,,0.00,weatherlink.com 1.10,2013-03-19 23:20:00,
2013-03-19 18:35:00,73.7,53.0,29.91,ENE,74,4.0,7.0,49,0.00,,,0.00,weatherlink.com 1.10,2013-03-19 23:35:00,
2013-03-19 18:50:00,72.6,53.0,29.91,NE,50,6.0,7.0,50,0.00,,,0.00,weatherlink.com 1.10,2013-03-19 23:50:00,
2013-03-19 19:05:00,71.7,52.0,29.92,East,82,1.0,5.0,51,0.00,,,0.00,weatherlink.com 1.10,2013-03-20 00:05:00,
2013-03-19 19:20:00,71.4,52.0,29.92,NNE,23,2.0,5.0,51,0.00,,,0.00,weatherlink.com 1.10,2013-03-20 00:20:00,
2013-03-19 19:35:00,71.4,53.0,29.92,East,94,1.0,3.0,52,0.00,,,0.00,weatherlink.com 1.10,2013-03-20 00:35:00,
2013-03-19 19:50:00,71.1,52.0,29.92,East,86,0.0,5.0,52,0.00,,,0.00,weatherlink.com 1.10,2013-03-20 00:50:00,
2013-03-19 20:05:00,70.7,53.0,29.93,ENE,78,1.0,3.0,53,0.00,,,0.00,weatherlink.com 1.10,2013-03-20 01:05:00,
2013-03-19 20:20:00,69.9,53.0,29.93,East,84,2.0,4.0,55,0.00,,,0.00,weatherlink.com 1.10,2013-03-20 01:20:00,
2013-03-19 20:35:00,69.3,52.0,29.93,NE,50,1.0,4.0,55,0.00,,,0.00,weatherlink.com 1.10,2013-03-20 01:35:00,
2013-03-19 20:50:00,68.7,52.0,29.94,East,89,2.0,4.0,56,0.00,,,0.00,weatherlink.com 1.10,2013-03-20 01:50:00,
2013-03-19 21:05:00,68.3,52.0,29.94,ENE,70,0.0,3.0,57,0.00,,,0.00,weatherlink.com 1.10,2013-03-20 02:05:00,
2013-03-19 21:20:00,67.9,52.0,29.95,East,82,0.0,1.0,58,0.00,,,0.00,weatherlink.com 1.10,2013-03-20 02:20:00,
2013-03-19 21:35:00,67.5,52.0,29.95,ENE,74,1.0,4.0,58,0.00,,,0.00,weatherlink.com 1.10,2013-03-20 02:35:00,
2013-03-19 21:50:00,67.6,52.0,29.95,ESE,122,2.0,6.0,57,0.00,,,0.00,weatherlink.com 1.10,2013-03-20 02:50:00,
2013-03-19 22:05:00,67.4,51.0,29.96,ESE,107,2.0,6.0,56,0.00,,,0.00,weatherlink.com 1.10,2013-03-20 03:05:00,
2013-03-19 22:20:00,66.9,50.0,29.95,NE,44,5.0,6.0,55,0.00,,,0.00,weatherlink.com 1.10,2013-03-20 03:20:00,
2013-03-19 22:35:00,66.3,49.0,29.96,East,88,3.0,7.0,55,0.00,,,0.00,weatherlink.com 1.10,2013-03-20 03:35:00,
2013-03-19 22:50:00,65.9,50.0,29.96,East,96,1.0,8.0,56,0.00,,,0.00,weatherlink.com 1.10,2013-03-20 03:50:00,
2013-03-19 23:05:00,65.0,50.0,29.96,East,86,3.0,4.0,58,0.00,,,0.00,weatherlink.com 1.10,2013-03-20 04:05:00,
2013-03-19 23:20:00,64.5,50.0,29.97,East,87,1.0,4.0,59,0.00,,,0.00,weatherlink.com 1.10,2013-03-20 04:20:00,
2013-03-19 23:35:00,64.4,49.0,29.98,ESE,104,3.0,6.0,57,0.00,,,0.00,weatherlink.com 1.10,2013-03-20 04:35:00,
2013-03-19 23:50:00,64.3,48.0,29.99,ENE,70,4.0,8.0,55,0.00,,,0.00,weatherlink.com 1.10,2013-03-20 04:50:00,